Weather History for Columbus, OH

Change the Weather History Date:

Friday, November 23, 2012

  Actual Average Record
Temperature  
Mean Temperature 43 °F 41 °F  
Max Temperature 54 °F 49 °F 72 °F (1931)
Min Temperature 32 °F 34 °F -1 °F (1880)
Degree Days  
Heating Degree Days 22 24  
Month to date heating degree days 481 444  
Since 1 July heating degree days 918 838  
Cooling Degree Days 0 0  
Month to date cooling degree days 0 0  
Year to date cooling degree days 1439 1024  
Moisture  
Dew Point 33 °F    
Average Humidity 64    
Maximum Humidity 77    
Minimum Humidity 50    
Precipitation  
Precipitation T in 0.12 in 1.79 in (1891)
Month to date precipitation 0.64 2.46  
Year to date precipitation 31.55 35.60  
Snow  
Snow 0.00 in 0.00 in 1.40 in (2005)
Month to date snowfall 0.0 0.5  
Since 1 July snowfall 0.6 0.7  
Since 1 September snowfall 0.6 0.7  
Snow Depth 0.00 in    
Sea Level Pressure  
Sea Level Pressure 29.98 in    
Wind  
Wind Speed 17 mph (WSW)    
Max Wind Speed 31 mph    
Max Gust Speed 40 mph    
Visibility 10 miles    
Events Rain    
T = Trace of Precipitation, MM = Missing Value Source: NWS Daily Summary

Daily Weather History Graph

Daily Weather History Graph

Search for Another Location

Airport:

Trip Planner

Search our weather history database for the weather conditions in past years. The results will help you decide how hot, cold, wet, or windy it might be!

Date:

Astronomy

Nov. 23, 2012 Rise Set
Actual Time 7:26 AM EST 5:09 PM EST
Civil Twilight 6:56 AM EST 5:39 PM EST
Nautical Twilight 6:23 AM EST 6:12 PM EST
Astronomical Twilight 5:51 AM EST 6:44 PM EST
Moon 2:23 PM EST (11/23) 2:44 AM EST (11/23)
Length of Visible Light 10h 42m
Length of Day
9h 43m
Waxing Gibbous, 79% of the Moon is Illuminated
Nov 23
Waxing Gibbous
Nov 28
Full
Dec 6
Last Quarter
Dec 13
New
Dec 20
First Quarter

Hourly Weather History & Observations

Time (EST) Temp. Windchill Dew Point Humidity Pressure Visibility Wind Dir Wind Speed Gust Speed Precip Events Conditions
12:51 AM 50.0 °F - 39.0 °F 66% 29.99 in 10.0 mi SSW 10.4 mph - N/A   Scattered Clouds
1:51 AM 50.0 °F - 39.9 °F 68% 29.96 in 10.0 mi South 8.1 mph - N/A   Mostly Cloudy
2:51 AM 52.0 °F - 39.9 °F 63% 29.94 in 10.0 mi SSW 12.7 mph - N/A   Mostly Cloudy
3:51 AM 53.1 °F - 39.9 °F 61% 29.92 in 10.0 mi SSW 10.4 mph - N/A   Overcast
4:29 AM 53.6 °F - 39.2 °F 58% 29.91 in 10.0 mi SSW 11.5 mph - N/A   Overcast
4:42 AM 53.6 °F - 39.2 °F 58% 29.91 in 10.0 mi SSW 12.7 mph - N/A   Overcast
4:51 AM 53.1 °F - 39.9 °F 61% 29.91 in 10.0 mi SSW 12.7 mph - N/A   Overcast
5:41 AM 53.6 °F - 41.0 °F 62% 29.89 in 10.0 mi SW 9.2 mph - 0.00 in Rain Light Rain
5:51 AM 54.0 °F - 41.0 °F 62% 29.90 in 10.0 mi SW 9.2 mph - 0.00 in Rain Light Rain
6:00 AM 53.6 °F - 42.8 °F 67% 29.89 in 10.0 mi SW 11.5 mph - 0.00 in   Overcast
6:37 AM 53.6 °F - 42.8 °F 67% 29.89 in 10.0 mi SW 10.4 mph - 0.00 in Rain Light Rain
6:51 AM 53.1 °F - 44.1 °F 71% 29.90 in 10.0 mi SW 11.5 mph - 0.00 in Rain Light Rain
7:51 AM 53.1 °F - 46.0 °F 77% 29.90 in 10.0 mi WSW 15.0 mph 21.9 mph 0.00 in   Overcast
8:51 AM 52.0 °F - 44.1 °F 74% 29.91 in 10.0 mi West 20.7 mph - N/A   Overcast
9:14 AM 50.0 °F - 39.2 °F 66% 29.91 in 10.0 mi West 23.0 mph 28.8 mph N/A   Overcast
9:51 AM 46.0 °F 39.0 °F 35.1 °F 66% 29.93 in 10.0 mi West 17.3 mph 24.2 mph N/A   Overcast
10:51 AM 45.0 °F 38.2 °F 35.1 °F 68% 29.95 in 10.0 mi West 15.0 mph - N/A   Scattered Clouds
11:51 AM 48.0 °F - 34.0 °F 58% 29.94 in 10.0 mi West 25.3 mph 29.9 mph N/A   Scattered Clouds
12:51 PM 48.0 °F - 30.9 °F 52% 29.93 in 10.0 mi West 24.2 mph 31.1 mph N/A   Scattered Clouds
1:51 PM 44.1 °F 34.8 °F 28.9 °F 55% 29.93 in 10.0 mi West 25.3 mph 35.7 mph N/A   Overcast
2:51 PM 41.0 °F 30.7 °F 27.0 °F 57% 29.96 in 10.0 mi West 25.3 mph 33.4 mph N/A   Overcast
3:51 PM 39.0 °F 28.8 °F 24.1 °F 55% 30.01 in 10.0 mi WNW 21.9 mph 34.5 mph N/A   Overcast
4:49 PM 37.4 °F 26.6 °F 26.6 °F 65% 30.03 in 10.0 mi WNW 21.9 mph 33.4 mph N/A   Overcast
4:51 PM 37.0 °F 25.1 °F 26.1 °F 65% 30.05 in 10.0 mi WNW 26.5 mph 33.4 mph N/A   Overcast
5:19 PM 35.6 °F 23.7 °F 21.2 °F 56% 30.05 in 10.0 mi West 24.2 mph 35.7 mph N/A   Overcast
5:51 PM 34.0 °F 21.8 °F 23.0 °F 64% 30.08 in 10.0 mi WNW 23.0 mph 32.2 mph N/A   Overcast
6:25 PM 33.8 °F 22.8 °F 19.4 °F 56% 30.09 in 10.0 mi WNW 18.4 mph 32.2 mph N/A   Overcast
6:51 PM 33.1 °F 21.2 °F 19.0 °F 56% 30.12 in 10.0 mi WNW 20.7 mph 29.9 mph N/A   Overcast
7:51 PM 32.0 °F 20.8 °F 18.0 °F 56% 30.13 in 10.0 mi West 17.3 mph 25.3 mph N/A   Overcast
8:51 PM 32.0 °F 21.2 °F 18.0 °F 56% 30.14 in 10.0 mi West 16.1 mph 24.2 mph N/A   Overcast
10:51 PM 32.0 °F 21.6 °F 19.0 °F 59% 30.14 in 10.0 mi West 15.0 mph - N/A   Overcast
11:51 PM 32.0 °F 21.2 °F 19.9 °F 61% 30.12 in 10.0 mi West 16.1 mph 24.2 mph N/A   Overcast